Weather in Shikhovo

Russia / Kirov Oblast     58°37′54″N   49°50′03″E
temp.,
°C
wind,
m/s
gust,
m/s
humid.,
%
clouds,
%
prec.,
mm/h
press.,
hPa
HPBL,
m
24 january, sun
sun2400:00−12sse4994100 0.4 1019370
03:00−11sse4995100 0.7 1018311
06:00−11sse479597 0.3 1017266
09:00−9s259598 0.8 1018225
12:00−6ssw1396100 0.1 1018173
15:00−3ssw129899 0.1 101981
18:000s2498100 0.0 1019125
21:00+1ssw2799100 0.0 1020238
25 january, mon
mon2500:00+1ssw3998100 0.0 1019373
03:00+1ssw3899100 0.0 1020345
06:00+1ssw2799100 0.2 1019233
09:00+1ssw4999100 0.4 1020341
12:00+1ssw41099100 0.3 1020362
15:00+2ssw41099100 0.6 1021345
18:00+1ssw4998100 0.3 1021342
21:000ssw51195100 0.4 1022451
26 january, tue
tue2600:00−2ssw41094100 0.2 1022463
03:00−3ssw4994100 0.2 1023614
06:00−3ssw4893100 0.1 1022606
09:00−4s4893100 0.1 1022525
12:00−3s3792100 0.1 1022529
15:00−3s3895100 0.2 1021485
18:00−2s4995100 0.1 1021425
21:00−3s4995100 0.3 1020464
27 january, wed
wed2700:00−4s3995100 0.2 1019528
03:00−3s41096100 0.4 1018552
06:00−3ssw41096100 0.4 1018542
09:00−2ssw499598 0.6 1018541
12:000ssw4994100 0.1 1019637
15:00−1s4994100 0.2 1019573
18:00−2s4992100 0.0 1019382
21:00−2s41194100 0.1 1018506
28 january, thu
thu2800:00−2s51197100 0.4 1018477
03:00−2s41191100 0.7 1017507
06:00−6s41191100 0.0 1017419
09:00−6s51188100 0.0 1017432
12:00−4s51185100 0.0 1016525
15:00−4s41186100 0.0 1014535
18:00−6s41291100 0.0 1015460
21:00−7s41092100 0.0 1014421